STARLINK-32402, 61708

Orbit data source: Space-Track

STARLINK-32402, 61708 is a payload satellite owned by SpaceX/Seattle (US) in LEO that was launched on Wed, 30 Oct 2024 UTC via an FALCON 9 launch vehicle from the Air Force Eastern Test Range (AFETR). Payload-class satellites include a variety of spacecraft equipped with specific instruments for various scientific and technological missions. These include communications satellites like Starlink; space stations such as the ISS; scientific satellites like the Hubble; Earth observation satellites from companies like Planet Labs, Umbra, and HawkEye 360; GPS; miniature CubeSats for education and research; and military/defense satellites.

Loading next visibility...
Identifier
61708, 2024-196B
Orbit
LEO
Country
Flag of USUS
Related business
Manufacturer
SpaceX/Seattle
Mission
Operational Commercial Communications
Bus & Motor
STARLINK V2M, Unknown motor
Mass
730 kg wet, ~700 kg dry
Launch date (UTC)
2024-10-30 (1 year ago)
Launch vehicle
FALCON 9
Launch site
Air Force Eastern Test Range (AFETR)
Object type
Payload
Rocket body
Debris
Shape & HBR
Box + 2 Pan, 17.7 m
Radar Cross Section
33.884 m², Large (>1 m²)

Expand to show TLE details & history
Last TLE update: 15 hours ago

TLE from 15 hours ago
0 STARLINK-32402
1 61708U 24196B   25348.82477799 -.00003358  00000-0 -10137-3 0  9995
2 61708  53.1585 135.5127 0001167  80.1916 279.9217 15.30180161 64165
Epoch: 2025-12-14T19:47Z
TLE epoch observation values (Epoch: 2025-12-14T19:47:40.818Z)
Latitude
0.00003°
Longitude
114.8605°
Altitude
476.036 km
Speed
7.629 km/s
True Right ascension
09h 02m 03s
True Declination
0° 00' 00"
Sunlit
Object was in full shadow at epoch
Visualization orbit readout
Latitude
Unknown
Longitude
Unknown
Altitude
Unknown
Speed
Unknown
Apparent Right ascension
Unknown
Apparent Declination
Unknown
Sunlit
N/A
Visualization observer readout
Local Sidereal Time
09:10:53
Azimuth
Unknown
Elevation
Unknown
Doppler factor
Unknown
Orbital elements
Apogee altitude
476.331 km
Perigee altitude
474.731 km
Semi-major axis
6,853.668 km
Eccentricity
0.00012
Inclination
53.1585°
RAAN
135.5127°
Arg. of periapsis
80.1916°
True anomaly
279.90853°
Mean anomaly
279.9217°
Eccentric anomaly
279.91511°
Mean motion
3.82524 °/min
Orbital period
94.11 mins
BSTAR
-0.00010137
Loading maneuver chart data...
Computing Atmospheric mass density...
Loading historical data...
Loading historical data...
Loading historical data...
Loading historical data...
Loading historical data...
Loading historical data...
Loading historical data...

Documentation

Showing up to 5 results
|